Regional Weather Roundup
Issued by NWS

Home | Current Version | Previous Version | Graphics & Text | Print | Product List | Glossary On
Versions: 1 2 3 4 5 6 7 8 9 10 11 12 13 14 15 16 17 18 19 20 21 22 23 24 25 26 27 28 29 30 31 32 33 34 35 36 37 38 39 40 41 42 43 44 45 46 47 48 49 50
000
ASUS43 KBIS 260510
RWRND

NORTH DAKOTA REGIONAL WEATHER ROUNDUP
NATIONAL WEATHER SERVICE BISMARCK ND
1100 PM CST SAT FEB 25 2017

NOTE: "FAIR" INDICATES FEW OR NO CLOUDS BELOW 12,000 FEET WITH NO
SIGNIFICANT WEATHER AND/OR OBSTRUCTIONS TO VISIBILITY.


NDZ001>003-009>011-017-260600-
NORTHWEST NORTH DAKOTA

CITY           SKY/WX    TMP DP  RH WIND       PRES   REMARKS
WILLISTON      FAIR       3   1  91 CALM      29.71S
MINOT          FAIR      10   6  84 NW8       29.70R WCI  -2
MINOT AFB      CLEAR      2  -2  85 NW7       29.69S WCI -11
$$

NDZ018>021-031>035-040>046-260600-
SOUTHWEST NORTH DAKOTA

CITY           SKY/WX    TMP DP  RH WIND       PRES   REMARKS
BISMARCK       CLOUDY    28  25  88 W12       29.67R WCI  18
DICKINSON      CLOUDY    21  18  88 NW7       29.63R WCI  12
GARRISON         N/A     14   9  80 NE10      29.68R WCI   1
HETTINGER ARPT CLEAR     16  14  92 W8        29.67S WCI   5
$$

NDZ004>008-012>016-024-026-027-054-260600-
NORTHEAST NORTH DAKOTA

CITY           SKY/WX    TMP DP  RH WIND       PRES   REMARKS
GRAND FORKS    CLOUDY    17   8  67 N9        29.73F WCI   6
GRND FRKS AFB  LGT SNOW  16  10  79 NE7       29.72S WCI   6
DEVILS LAKE    LGT SNOW  14  10  85 NE6       29.70R VSB 3/4 WCI   5
$$

NDZ022-023-025-028>030-036>039-047>053-260600-
SOUTHEAST NORTH DAKOTA

CITY           SKY/WX    TMP DP  RH WIND       PRES   REMARKS
FARGO          CLEAR     22  20  92 W3        29.71S
JAMESTOWN      CLOUDY    20  17  88 S10       29.65F WCI   9
$$




USA.gov is the U.S. government's official web portal to all federal, state and local government web resources and services.